Weather History for KFKS - December, 2013

Change the Weather History Date:

Saturday, December 7, 2013

  Actual Average (KTVC) Record (KTVC)
Temperature  
Mean Temperature 16 °F 29 °F  
Max Temperature 19 °F 35 °F 57 °F (1946)
Min Temperature 15 °F 24 °F -4 °F (1972)
Degree Days  
Heating Degree Days 48 36  
Month to date heating degree days 243  
Since 1 July heating degree days 1862  
Moisture  
Dew Point 8 °F    
Average Humidity 67    
Maximum Humidity 76    
Minimum Humidity 58    
Precipitation  
Precipitation 0.00 in 0.08 in 1.29 in (2004)
Month to date precipitation 0.57  
Year to date precipitation 31.13  
Sea Level Pressure  
Sea Level Pressure 30.52 in    
Wind  
Wind Speed 10 mph (WNW)    
Max Wind Speed 15 mph    
Max Gust Speed 22 mph    
Visibility 10 miles    
Events Snow    
T = Trace of Precipitation, MM = Missing Value Source: NWS Daily Summary

Daily Weather History Graph

Daily Weather History Graph

Search for Another Location

Airport or City:

Trip Planner

Search our weather history database for the weather conditions in past years. The results will help you decide how hot, cold, wet, or windy it might be!

Date:

Astronomy

Dec. 07, 2013 Rise Set
Actual Time 8:08 AM EST 5:04 PM EST
Civil Twilight 7:34 AM EST 5:37 PM EST
Nautical Twilight 6:58 AM EST 6:14 PM EST
Astronomical Twilight 6:22 AM EST 6:49 PM EST
Moon 11:44 AM EST (12/7) 10:55 PM EST (12/7)
Length of Visible Light 10h 02m
Length of Day
8h 56m
Waxing Crescent, 29% of the Moon is Illuminated
Dec 7
Waxing Crescent
Dec 9
First Quarter
Dec 17
Full
Dec 25
Last Quarter
Jan 1
New

Hourly Weather History & Observations

Time (EST) Temp. Windchill Dew Point Humidity Pressure Visibility Wind Dir Wind Speed Gust Speed Precip Events Conditions
12:16 AM 18.9 °F 7.2 °F 11.1 °F 72% 30.40 in 10.0 mi WNW 10.4 mph - N/A Snow Light Snow
12:36 AM 18.5 °F 6.1 °F 10.9 °F 72% 30.40 in 10.0 mi WNW 11.5 mph 16.1 mph N/A Snow Light Snow
12:56 AM 18.3 °F 5.9 °F 10.0 °F 70% 30.40 in 10.0 mi WNW 11.5 mph - N/A   Overcast
1:16 AM 18.3 °F 7.3 °F 10.2 °F 71% 30.40 in 10.0 mi WNW 9.2 mph - N/A Snow Light Snow
1:31 AM 18.3 °F 6.6 °F 11.1 °F 73% 30.41 in 7.0 mi WNW 10.4 mph - N/A Snow Light Snow
1:51 AM 18.1 °F 7.9 °F 11.1 °F 74% 30.41 in 10.0 mi NW 8.1 mph - N/A Snow Light Snow
2:11 AM 18.1 °F 6.3 °F 10.4 °F 72% 30.42 in 10.0 mi NW 10.4 mph - N/A Snow Light Snow
2:32 AM 18.1 °F 7.1 °F 11.7 °F 76% 30.42 in 7.0 mi WNW 9.2 mph - N/A Snow Light Snow
2:52 AM 18.0 °F 6.1 °F 10.6 °F 73% 30.43 in 10.0 mi NW 10.4 mph 16.1 mph N/A Snow Light Snow
3:12 AM 17.6 °F 6.4 °F 10.4 °F 73% 30.44 in 10.0 mi West 9.2 mph 16.1 mph N/A Snow Light Snow
3:32 AM 17.6 °F 5.7 °F 10.4 °F 73% 30.45 in 7.0 mi WNW 10.4 mph - N/A Snow Light Snow
3:52 AM 17.6 °F 5.7 °F 10.4 °F 73% 30.45 in 10.0 mi West 10.4 mph - N/A Snow Light Snow
4:12 AM 17.6 °F 5.7 °F 9.7 °F 71% 30.45 in 10.0 mi WNW 10.4 mph - N/A Snow Light Snow
4:32 AM 17.6 °F 4.3 °F 11.3 °F 76% 30.45 in 7.0 mi WNW 12.7 mph 21.9 mph N/A Snow Light Snow
4:53 AM 17.6 °F 7.3 °F 10.2 °F 73% 30.46 in 10.0 mi West 8.1 mph 17.3 mph N/A   Overcast
5:13 AM 17.4 °F 5.4 °F 11.1 °F 76% 30.46 in 7.0 mi NW 10.4 mph - N/A Snow Light Snow
5:33 AM 17.2 °F 5.2 °F 10.8 °F 76% 30.47 in 10.0 mi NW 10.4 mph - N/A Snow Light Snow
5:53 AM 17.4 °F 4.7 °F 9.9 °F 72% 30.48 in 10.0 mi WNW 11.5 mph - N/A Snow Light Snow
6:13 AM 17.2 °F 5.2 °F 10.4 °F 75% 30.48 in 10.0 mi WNW 10.4 mph - N/A Snow Light Snow
6:33 AM 17.2 °F 2.7 °F 9.0 °F 70% 30.48 in 10.0 mi WNW 15.0 mph 18.4 mph N/A   Overcast
6:53 AM 16.7 °F 5.3 °F 9.1 °F 72% 30.49 in 10.0 mi NW 9.2 mph 18.4 mph N/A Snow Light Snow
7:13 AM 16.7 °F 3.2 °F 9.1 °F 72% 30.50 in 10.0 mi NW 12.7 mph 18.4 mph N/A Snow Light Snow
7:33 AM 16.7 °F 4.5 °F 8.4 °F 70% 30.51 in 10.0 mi NW 10.4 mph - N/A   Overcast
7:53 AM 16.7 °F 5.3 °F 9.7 °F 74% 30.51 in 10.0 mi WNW 9.2 mph 12.7 mph N/A Snow Light Snow
8:14 AM 16.5 °F 3.6 °F 9.5 °F 74% 30.51 in 10.0 mi WNW 11.5 mph 17.3 mph N/A Snow Light Snow
8:34 AM 15.8 °F 3.4 °F 7.3 °F 69% 30.52 in 10.0 mi WNW 10.4 mph 17.3 mph N/A   Mostly Cloudy
8:54 AM 16.2 °F 4.7 °F 8.4 °F 72% 30.52 in 10.0 mi WNW 9.2 mph - N/A   Mostly Cloudy
9:14 AM 16.3 °F 2.7 °F 7.7 °F 69% 30.53 in 10.0 mi WNW 12.7 mph - N/A   Mostly Cloudy
9:34 AM 16.9 °F 4.1 °F 7.7 °F 67% 30.53 in 10.0 mi WNW 11.5 mph - N/A   Mostly Cloudy
9:54 AM 17.6 °F 3.2 °F 6.3 °F 61% 30.54 in 10.0 mi WNW 15.0 mph 18.4 mph N/A   Mostly Cloudy
10:14 AM 16.9 °F 2.8 °F 5.7 °F 62% 30.55 in 10.0 mi WNW 13.8 mph - N/A   Mostly Cloudy
10:34 AM 17.6 °F 3.2 °F 7.9 °F 66% 30.56 in 10.0 mi WNW 15.0 mph 19.6 mph N/A   Overcast
10:54 AM 17.6 °F 4.3 °F 7.7 °F 65% 30.57 in 10.0 mi WNW 12.7 mph 19.6 mph N/A   Mostly Cloudy
11:15 AM 18.0 °F 4.2 °F 7.9 °F 65% 30.57 in 10.0 mi WNW 13.8 mph 19.6 mph N/A   Overcast
11:35 AM 17.8 °F 4.6 °F 7.7 °F 65% 30.57 in 10.0 mi WNW 12.7 mph 17.3 mph N/A   Overcast
11:55 AM 17.2 °F 4.5 °F 7.0 °F 64% 30.58 in 10.0 mi NW 11.5 mph 18.4 mph N/A   Mostly Cloudy
12:15 PM 17.4 °F 5.4 °F 7.5 °F 65% 30.58 in 10.0 mi NW 10.4 mph - N/A   Mostly Cloudy
12:35 PM 17.6 °F 3.7 °F 6.8 °F 63% 30.56 in 10.0 mi WNW 13.8 mph - N/A   Mostly Cloudy
12:55 PM 17.4 °F 7.1 °F 6.4 °F 62% 30.57 in 10.0 mi WNW 8.1 mph - N/A   Mostly Cloudy
1:15 PM 18.3 °F 5.9 °F 6.8 °F 61% 30.56 in 10.0 mi WNW 11.5 mph - N/A   Mostly Cloudy
1:36 PM 17.8 °F 5.9 °F 6.1 °F 60% 30.56 in 10.0 mi WNW 10.4 mph - N/A   Mostly Cloudy
1:56 PM 17.4 °F 4.7 °F 4.8 °F 58% 30.56 in 10.0 mi West 11.5 mph - N/A   Mostly Cloudy
2:16 PM 18.0 °F 5.4 °F 6.3 °F 60% 30.55 in 10.0 mi WNW 11.5 mph - N/A   Overcast
2:36 PM 17.6 °F 6.4 °F 6.1 °F 61% 30.56 in 10.0 mi WNW 9.2 mph - N/A   Overcast
2:56 PM 17.2 °F 4.5 °F 5.7 °F 61% 30.55 in 10.0 mi West 11.5 mph 16.1 mph N/A   Overcast
3:16 PM 17.1 °F 5.0 °F 5.5 °F 61% 30.55 in 10.0 mi WNW 10.4 mph - N/A   Mostly Cloudy
3:36 PM 17.4 °F 6.2 °F 6.6 °F 63% 30.56 in 10.0 mi West 9.2 mph - N/A   Mostly Cloudy
3:51 PM 17.2 °F 7.8 °F 6.1 °F 62% 30.56 in 10.0 mi West 6.9 mph - N/A   Mostly Cloudy
4:11 PM 17.2 °F 7.8 °F 6.4 °F 63% 30.55 in 10.0 mi West 6.9 mph - N/A   Mostly Cloudy
4:31 PM 17.1 °F 6.6 °F 6.8 °F 64% 30.56 in 10.0 mi West 8.1 mph - N/A   Mostly Cloudy
4:51 PM 16.9 °F 6.4 °F 6.3 °F 63% 30.56 in 10.0 mi WSW 8.1 mph - N/A   Mostly Cloudy
5:11 PM 16.9 °F 4.1 °F 6.8 °F 65% 30.56 in 10.0 mi West 11.5 mph - N/A   Overcast
5:32 PM 17.1 °F 6.6 °F 6.8 °F 64% 30.56 in 10.0 mi West 8.1 mph - N/A   Mostly Cloudy
5:52 PM 17.2 °F 7.8 °F 7.2 °F 65% 30.56 in 10.0 mi West 6.9 mph - N/A   Mostly Cloudy
6:12 PM 17.4 °F 7.1 °F 6.8 °F 63% 30.55 in 10.0 mi West 8.1 mph 16.1 mph N/A   Mostly Cloudy
6:32 PM 17.6 °F 10.7 °F 7.7 °F 65% 30.56 in 10.0 mi WSW 4.6 mph - N/A   Mostly Cloudy
6:52 PM 17.6 °F 6.4 °F 7.3 °F 64% 30.55 in 10.0 mi WSW 9.2 mph - N/A   Mostly Cloudy
7:12 PM 17.6 °F 5.7 °F 7.3 °F 64% 30.55 in 10.0 mi West 10.4 mph 18.4 mph N/A   Mostly Cloudy
7:32 PM 17.4 °F 5.4 °F 6.8 °F 63% 30.56 in 10.0 mi West 10.4 mph 16.1 mph N/A   Mostly Cloudy
7:53 PM 17.8 °F 6.6 °F 9.0 °F 68% 30.56 in 10.0 mi WNW 9.2 mph - N/A   Mostly Cloudy
8:13 PM 17.6 °F 5.7 °F 7.7 °F 65% 30.56 in 10.0 mi West 10.4 mph - N/A   Mostly Cloudy
8:33 PM 17.6 °F 6.4 °F 7.3 °F 64% 30.55 in 10.0 mi WNW 9.2 mph - N/A   Mostly Cloudy
8:53 PM 17.4 °F 7.1 °F 7.7 °F 66% 30.55 in 10.0 mi West 8.1 mph - N/A   Mostly Cloudy
9:13 PM 17.4 °F 5.4 °F 7.7 °F 66% 30.55 in 10.0 mi West 10.4 mph - N/A   Mostly Cloudy
9:33 PM 17.2 °F 5.2 °F 7.7 °F 66% 30.55 in 10.0 mi West 10.4 mph - N/A   Mostly Cloudy
9:53 PM 17.2 °F 7.8 °F 7.9 °F 67% 30.55 in 10.0 mi West 6.9 mph - N/A   Overcast
10:14 PM 16.9 °F 5.5 °F 7.9 °F 68% 30.55 in 10.0 mi West 9.2 mph 16.1 mph N/A   Overcast
10:34 PM 16.5 °F 6.0 °F 7.0 °F 66% 30.54 in 10.0 mi West 8.1 mph 17.3 mph N/A   Mostly Cloudy
10:54 PM 16.5 °F 3.6 °F 7.5 °F 68% 30.54 in 10.0 mi WNW 11.5 mph - N/A   Mostly Cloudy
11:14 PM 16.2 °F 4.7 °F 7.2 °F 68% 30.54 in 10.0 mi WNW 9.2 mph - N/A   Scattered Clouds
11:34 PM 15.8 °F 5.1 °F 7.0 °F 68% 30.54 in 10.0 mi WNW 8.1 mph - N/A   Mostly Cloudy
11:54 PM 15.8 °F 7.2 °F 7.7 °F 70% 30.54 in 10.0 mi West 5.8 mph - N/A   Mostly Cloudy